Port Angeles, WA (98362)

11:12 PM PST on February 06, 2016 (GMT -0800)
Lake Dawn | | Change Station
CLOSE
Current Station
Personal Weather Station
Location: Port Angeles, WA
Elevation: 1864 ft
Nearby Weather Stations

Elev 1864 ft 48.04 °N, 123.43 °W | Updated 12 minutes ago

Overcast
Overcast
32.7 °F
Feels Like 33 °F
N
0.0
Wind Variable Wind from North
Gusts 0.0 mph

Today
High -- | Low -- °F
--% Chance of Precip.
Yesterday
High -- | Low -- °F
Precip. -- in
Pressure 30.51 in
Visibility 10.0 miles
Clouds Clear
Windchill 33 °F
Dew Point 32 °F
Humidity 99%
Rainfall 0.07 in
Snow Depth Not available.
7:35 AM 5:21 PM
Waning Crescent, 2% visible
METAR KCLM 070653Z AUTO 22004KT 10SM CLR 03/02 A3050 RMK AO2 SLP332 T00280017
Pressure 30.51 in
Visibility 10.0 miles
Clouds Clear
Windchill 33 °F
Dew Point 32 °F
Humidity 99%
Rainfall 0.07 in
Snow Depth Not available.
7:35 AM 5:21 PM
Waning Crescent, 2% visible
METAR KCLM 070653Z AUTO 22004KT 10SM CLR 03/02 A3050 RMK AO2 SLP332 T00280017

10-Day Weather Forecast

Almanac

Astronomy

Feb. 06, 2016 Rise Set
Actual Time
Civil Twilight
Nautical Twilight
Astronomical Twilight
Moon
Length of Visible Light
Length of Day
Tomorrow will be .
, % of the Moon is Illuminated

Today's Extremes

State Highs State Lows

Community

WunderPhotos

Upload Photos

1,891,174 photos uploaded!

WunderBlog® & News

Nearby

Air Quality

  Air Quality AQ Index Pollutant
Not available.

Snow Depth

Station Depth Elevation

Earthquake Activity

City Distance Mag. Time & Date
Minimum magnitude displayed is 2.5.

Coastal Water Temperatures

Place Temperature

Stations

Nearby Weather Stations

Station Location Temp. Windchill Dew Point Humidity Wind Precip. Elev Updated Type
                   

Watches & Warnings

There are currently no watches in effect.